Starlink 30241

operational
NORAD ID: 57298 Int'l Des: 2023-096 Owner: SPXS Country: US Constellation: starlink
LEOCIRCULAR

Starlink 30241について

説明を読み込み中...

リアルタイム位置

3D地球を読み込み中...

次回通過

高度履歴

Altitude vs Time

uPlot chart will show altitude changes over time

軌道要素

1 57298U 23096J 25260.47523815 .00051504 00000-0 21413-2 0 9999
2 57298 42.9948 66.3043 0021403 287.3312 72.5197 15.22830068121771
Epoch: Sep 17, 2025 • Age: 24 hours

現在のステータス

高度 513.9 km
速度 7.60 km/s
衛星直下点 38.98°N, 10.65°E
打ち上げ日 Jul 10, 2023
運用期間 2.1 years
タイプ internet

技術仕様

分類 Payload
質量 730.00 kg
乾燥質量 700.00 kg
総質量 730.00 kg
長さ 0.30 m
直径 4.10 m
スパン 29.00 m
形状 Box + pan
製造者 SPXS
バスタイプ Starlink V2M
フェーズステータス In Orbit
所有者/国 SPXS/US

大規模コンステレーション

Loading constellations...